Weather in zheleznodorozhnaya stantsiya Chudovo-3

Russia / Novgorod Oblast     59°09′50″N   31°40′16″E
temp.,
°C
wind,
m/s
gust,
m/s
humid.,
%
clouds,
%
prec.,
mm/h
press.,
hPa
HPBL,
m
5 december, sun
sun500:00−12ne3793100 0.1 1012511
03:00−13ne389399 0.3 1014451
06:00−14ne389395 0.1 1015410
09:00−14ne389295 0.3 1017430
12:00−14ne379196 0.1 1019410
15:00−15ne379288 0.1 1020342
18:00−17ne38938 0.0 1021245
21:00−17ne38935 0.0 1023205
6 december, mon
mon600:00−18ne26945 0.0 1023157
03:00−20ne26965 0.0 1024116
06:00−20ne26965 0.0 1023130
09:00−19ene26955 0.0 1024133
12:00−16ene379063 0.0 1024228
15:00−14ene379369 0.0 1022274
18:00−14ene3795100 0.1 1021263
21:00−13ene3795100 0.3 1020285
7 december, tue
tue700:00−12ene3695100 0.4 1019249
03:00−11ene2695100 0.6 1017227
06:00−10ne2596100 0.4 1016180
09:00−8nne249692 1.2 1014163
12:00−7nne239599 0.4 1014163
15:00−6n239673 0.8 1012204
18:00−9nw249768 0.1 101292
21:00−11nw249871 0.2 101282
8 december, wed
wed800:00−12wnw249880 0.1 101377
03:00−12wnw259883 0.1 101477
06:00−11wnw279788 0.1 1014157
09:00−13wnw379667 0.1 1016159
12:00−14w259626 0.0 1018135
15:00−14w239750 0.0 101959
18:00−17w129955 0.0 102025
21:00−19w1110051 0.0 102210
9 december, thu
thu900:00−20w1110043 0.0 102312
03:00−21wnw1110053 0.0 102314
06:00−21wnw1110078 0.0 10249
09:00−21wnw1110044 0.0 10249
12:00−15nnw11965 0.0 102439
15:00−14nw119856 0.0 10249
18:00−18nnw1110067 0.0 10249
21:00−18nw1110099 0.0 102419